Regional Weather Roundup
Issued by NWS

Home | Current Version | Previous Version | Graphics & Text | Print | Product List | Glossary On
Versions: 1 2 3 4 5 6 7 8 9 10 11 12 13 14 15 16 17 18 19 20 21 22 23 24 25 26 27 28 29 30 31 32 33 34 35 36 37 38 39 40 41 42 43 44 45 46 47 48 49 50
000
ASUS43 KMKX 280200
RWRWI

WISCONSIN REGIONAL WEATHER ROUNDUP
NATIONAL WEATHER SERVICE MILWAUKEE/SULLIVAN WI
800 PM CST MON FEB 27 2017

NOTE: "FAIR" INDICATES FEW OR NO CLOUDS BELOW 12,000 FEET WITH NO
SIGNIFICANT WEATHER AND/OR OBSTRUCTIONS TO VISIBILITY.

WIZ001-002-006>008-014>016-023>028-280300-
NORTHWEST WISCONSIN

CITY           SKY/WX    TMP DP  RH WIND       PRES   REMARKS
SUPERIOR ARPT  CLOUDY    28  26  91 E6        29.92S WCI  22
ASHLAND        PTCLDY    24  22  91 CALM      29.94S
HAYWARD        PTCLDY    36  18  48 S7        29.91F WCI  30
SIREN          CLOUDY    37  19  48 SE7       29.89S WCI  31
CUMBERLAND     CLOUDY    32  21  64 SE5       29.91S WCI  27
RICE LAKE      CLOUDY    34  23  63 SE7       29.93S WCI  28
CHETEK         CLOUDY    32  22  66 CALM      29.93S
LADYSMITH      CLOUDY    34  21  58 SE5       29.95S WCI  30
EAU CLAIRE     NOT AVBL
MENOMONIE      MOCLDY    33  22  63 E3        29.92F
NEW RICHMOND   PTCLDY    34  23  62 SE5       29.90S WCI  30
OSCEOLA        CLOUDY    36  23  58 SE7       29.92S WCI  31
$$

WIZ003>005-009-010-017-018-280300-
NORTH CENTRAL WISCONSIN

CITY           SKY/WX    TMP DP  RH WIND       PRES   REMARKS
MANITOWISH WTR MOCLDY    31  18  56 S6        29.94S WCI  26
ARBOR VITAE    CLEAR     33  19  56 SE3         N/A
WOODRUFF       CLEAR     33  19  56 SE3         N/A
RHINELANDER    CLEAR     33  17  51 SE6       29.97S WCI  28
EAGLE RIVER    MOCLDY    31  16  55 CALM      29.96S
LAND O LAKES   PTCLDY    32  18  55 S3        29.97S
PHILLIPS       MOCLDY    32  18  55 CALM      29.94S
TOMAHAWK       CLEAR     28  18  66 CALM      29.97S
MEDFORD        CLEAR     33  17  53 SE6       29.94F WCI  27
MERRILL        NOT AVBL
$$

WIZ029-030-035-036-043>047-280300-
CENTRAL WISCONSIN

CITY           SKY/WX    TMP DP  RH WIND       PRES   REMARKS
WAUSAU         PTCLDY    34  24  67 SE6       29.98S WCI  29
MOSINEE        NOT AVBL
MARSHFIELD     MOCLDY    35  26  69 SE5       29.96F WCI  31
STEVENS POINT  CLEAR     31  25  80 E3        30.01S
WAUPACA        CLEAR     34  29  80 E5        30.03S WCI  30
WAUTOMA        PTCLDY    30  28  92 CALM      30.02F
WISC RAPIDS    CLEAR     34  28  79 SE7       30.00F WCI  28
CAMP DOUGLAS   NOT AVBL
$$

WIZ011>013-019>022-031-037>040-048>050-280300-
NORTHEAST WISCONSIN

CITY           SKY/WX    TMP DP  RH WIND       PRES   REMARKS
ANTIGO         PTCLDY    29  22  75 SE8       30.00S WCI  21
SHAWANO        MOCLDY    35  29  79 CALM      30.04S
OCONTO         MOCLDY    33  29  87 SE3       30.06S
STURGEON BAY   PTCLDY    34  32  92 S7        30.07S WCI  28
GREEN BAY      PTCLDY    33  31  92 CALM      30.05S
MANITOWOC      NOT AVBL
APPLETON       PTCLDY    36  28  75 E3        30.02S
CLINTONVILLE   CLEAR     32  27  80 CALM      30.03F
OSHKOSH        PTCLDY    34  30  85 S3        30.02F
$$

WIZ032>034-041-042-053>061-280300-
SOUTHWEST WISCONSIN

CITY           SKY/WX    TMP DP  RH WIND       PRES   REMARKS
LA CROSSE      MOCLDY    42  31  64 E8        29.93F
SPARTA         PTCLDY    35  29  78 E6        29.96F WCI  30
VIROQUA        PTCLDY    37  32  81 SE9       29.95S WCI  31
BOSCOBEL       MOCLDY    36  31  82 CALM      29.96F
PRAIRIE DU CHI MOCLDY    44  31  61 SE6       29.94F
PLATTEVILLE    CLOUDY    41  33  73 E7        29.97F
$$

WIZ056-057-062-063-064-067-068-280300-
SOUTH CENTRAL WISCONSIN

CITY           SKY/WX    TMP DP  RH WIND       PRES   REMARKS
REEDSBURG      PTCLDY    38  32  79 E3        29.98F
BARABOO/DELLS  PTCLDY    37  30  77 SE6       29.99F WCI  32
LONE ROCK      NOT AVBL
MINERAL POINT  CLOUDY    43  32  65 E6        29.97F
MADISON        MOCLDY    37  29  72 CALM      30.01S
MIDDLETON      PTCLDY    36  32  85 CALM      30.01S
WATERTOWN      PTCLDY    38  32  79 E5        30.03S WCI  34
MONROE         PTCLDY    43  32  65 E7        29.99F
JANESVILLE     NOT AVBL
$$

WIZ051-052-058>065-066-070>072-280300-
SOUTHEAST WISCONSIN

CITY           SKY/WX    TMP DP  RH WIND       PRES   REMARKS
MILWAUKEE      PTCLDY    40  32  73 S5        30.06S
WAUKESHA       CLEAR     37  32  81 SE7       30.05F WCI  32
MILWAUKEE/TIMM CLEAR     41  30  65 S7        30.06S
RACINE         PTCLDY    42  33  70 S10       30.07F
KENOSHA        PTCLDY    41  33  73 SE9       30.06S
FOND DU LAC    CLEAR     37  29  72 SE6       30.03S WCI  32
SHEBOYGAN      CLOUDY    33  30  88 CALM      30.05F FOG
WEST BEND      CLOUDY    34  32  93 CALM      30.05S
JUNEAU         CLOUDY    37  32  80 SE8       30.04S WCI  31
$$

LSZ147-162-280300-
LAKE SUPERIOR

STATION/POSITION TIME  TEMP    WIND        PRES    WAVE
                       AIR SEA DIR/SP/G            HT/PER
                 (UTC) (F)     (DEG/KT/KT) (MB)    (FT/S)
DEVILS ISLAND    0100   30     100/ 14/ 16 1014.8S
PORT WING        0140   29      60/  4/  5 1013.2S
SAXON HARBOR     0040   29     200/  1/  2 1013.9R
$$

LMZ867-665-643>646-280300-
LAKE MICHIGAN

STATION/POSITION TIME  TEMP    WIND        PRES    WAVE
                       AIR SEA DIR/SP/G            HT/PER
                 (UTC) (F)     (DEG/KT/KT) (MB)    (FT/S)
CHAMBERS ISLAND  0140   34     150/  5/  8 1017.9R
NORTHPORT PIER   0140   35     160/  4/  8 1018.3R
SISTER BAY       0105   35     160/ 10/ 12   N/A
KEWAUNEE LAKESHO 0130   36     160/  6/  7 1017.7F
SHEBOYGAN LAKESH 0100   37     180/  8/  9 1018.7R
PORT WASHINGTON  0140   38     180/  5/  7 1019.0S
MILWAUKEE LAKESH 0130   39     310/  1/  1   N/A
KENOSHA   LAKESH 0100   40     170/ 10/ 14 1018.3
$$

TC  - TEMPERATURE IN CELSIUS
VSB - VISIBILITY IN STATUTE MILES
WCI - WIND CHILL INDEX
HX  - HEAT INDEX





USA.gov is the U.S. government's official web portal to all federal, state and local government web resources and services.